Flag for Tunisia Weather past 2 weeks in Houmt Souk (Djerba), Tunisia

Now
100 °F

Sunny.


Feels Like: 96 °F
Forecast: 65 / 81 °F
Wind: 9 mph from East

Location: Djerba Mellita

Current Time: May 6, 2015 at 4:35:03 PM

Latest Report: May 6, 2015 at 4:00 PM


Visibility: 10 mi

Pressure: 29.89 "Hg

Humidity: 14%

Dew point: 43 °F

Location of Houmt Souk (Djerba)Location

Historic Weather in Houmt Souk (Djerba) — Graph

°F

Houmt Souk (Djerba) temperature yesterday

Maximum temperature yesterday: 102 °F (at 2:30 PM)
Minimum temperature yesterday: 73 °F (at 12:00 AM)
Average temperature yesterday: 86 °F

Past Weeks' High & Low Weather Summary

 TemperatureHumidityPressure
High102 °F (May 5, 2:30 PM)94% (Apr 22, 6:30 AM)30.24 "Hg (Apr 22, 6:30 AM)
Low57 °F (Apr 22, 5:30 AM)14% (May 3, 4:30 PM)29.65 "Hg (Apr 27, 4:30 AM)
Average72 °F62%29.99 "Hg
* Reported Apr 21 3:00 PM — May 6 3:30 PM, Houmt Souk (Djerba), Weather by CustomWeather, © 2015

Note: Actual official high and low records may vary slightly from our data, if they occured in-between our weather recording intervals... More about our weather records

Advertising

Houmt Souk (Djerba) weather history for previous 24 hours

 ConditionsComfort  
Time TempWeatherWind HumidityBarometerVisibility
3:30 PM
Wed, May 6
100 °FSunny.8 mph14%29.89 "Hg10 mi
3:00 PM100 °FSunny.7 mph16%29.89 "Hg10 mi
2:30 PM99 °FPassing clouds.8 mph18%29.89 "HgN/A
2:00 PM99 °FSunny.8 mph21%29.92 "Hg10 mi
1:30 PM99 °FPassing clouds.7 mph21%29.92 "HgN/A
1:00 PM97 °FPassing clouds.6 mph23%29.92 "HgN/A
12:30 PM95 °FPassing clouds.5 mph28%29.92 "HgN/A
12:00 PM93 °FSunny.7 mph34%29.92 "Hg10 mi
11:30 AM91 °FPassing clouds.6 mph34%29.95 "HgN/A
11:00 AM90 °FSunny.5 mph41%29.95 "Hg10 mi
10:30 AM90 °FSunny.5 mph41%29.95 "Hg10 mi
10:00 AM91 °FSunny.6 mph44%29.92 "Hg10 mi
9:30 AM90 °FSunny.3 mph43%29.92 "Hg10 mi
9:00 AM86 °FPassing clouds.5 mph49%29.92 "HgN/A
8:30 AM84 °FClear.7 mph55%29.92 "Hg5 mi
8:00 AM81 °FClear.7 mph66%29.92 "Hg5 mi
7:30 AM79 °FClear.5 mph70%29.89 "Hg5 mi
7:00 AM77 °FClear.5 mph74%29.89 "Hg5 mi
6:30 AM73 °FClear.6 mph83%29.89 "Hg5 mi
6:00 AM72 °FClear.3 mph83%29.89 "Hg5 mi
5:30 AM72 °FMild.8 mph88%29.89 "HgN/A
5:00 AM73 °FClear.6 mph83%29.89 "Hg5 mi
4:00 AM73 °FClear.5 mph74%29.89 "Hg5 mi
3:30 AM73 °FClear.3 mph74%29.89 "Hg5 mi
3:00 AM73 °FClear.3 mph74%29.89 "Hg5 mi
2:30 AM72 °FClear.8 mph78%29.89 "Hg5 mi
2:00 AM72 °FClear.3 mph69%29.89 "Hg5 mi
1:30 AM73 °FClear.No wind65%29.89 "Hg5 mi
1:00 AM73 °FClear.No wind61%29.92 "Hg10 mi
12:30 AM75 °FClear.3 mph57%29.92 "Hg10 mi
12:00 AM77 °FPassing clouds.3 mph51%29.92 "HgN/A
11:30 PM
Tue, May 5
77 °FClear.8 mph51%29.92 "Hg10 mi
11:00 PM77 °FClear.8 mph51%29.92 "Hg10 mi
10:00 PM79 °FClear.9 mph45%29.92 "Hg10 mi
9:30 PM79 °FClear.9 mph45%29.92 "Hg10 mi
9:00 PM81 °FClear.9 mph42%29.89 "Hg10 mi
8:30 PM81 °FClear.10 mph39%29.89 "Hg10 mi
8:00 PM84 °FClear.9 mph35%29.89 "Hg10 mi
7:30 PM86 °FClear.12 mph31%29.89 "Hg10 mi
7:00 PM88 °FSunny.15 mph27%29.86 "Hg10 mi
6:30 PM91 °FSunny.13 mph23%29.86 "Hg10 mi
6:00 PM97 °FSunny.12 mph18%29.86 "Hg10 mi
5:30 PM100 °FSunny.10 mph14%29.86 "Hg10 mi
5:00 PM100 °FSunny.10 mph22%29.86 "Hg10 mi
4:30 PM102 °FSunny.8 mph14%29.86 "Hg10 mi
4:00 PM100 °FPassing clouds.8 mph18%29.86 "HgN/A
Weather by CustomWeather, © 2015

See weather overviewHow to use our weather pages